Current Weather Conditions: station 62112

sailwx.info

Wind from 090 at 17 knots

Wave height 2.5 meters (8 feet), 6 second period

Air temperature 9.4° C
Visibility: greater than 10.8 NM
Dewpoint 6.2° C

Last reported at 2019-Nov-11 21:00 UTC.
Time now 2019-Nov-11 22:30 UTC

Location: N 58°24' W 000°12'.
View on Google Maps.

See reports from other nearby stations

  
Tides and Currents Weather Stations Pressure Air Temp Water Temp Dewpoint Dewpoint Depression Visibility Wind Speed Wind Dir Waves Ship Positions
date/time (UTC)wind fromknots sea level pressurealtimeterstation pressurevisibilityair tempwater tempwave heightnotes
2019-Nov-11 21:00 090 17 10.8 9.4 2.5
2019-Nov-11 20:00 100 13 10.8 9.0 2.5
2019-Nov-11 19:00 110 7 10.8 8.4 2.7
2019-Nov-11 18:00 130 6 10.8 8.0 2.7
2019-Nov-11 17:00 120 7 10.8 8.2 3.1
2019-Nov-11 16:00 140 15 10.8 7.9 2.8
2019-Nov-11 15:00 130 8 10.8 7.6 3.0
2019-Nov-11 14:00 120 8 5.4 7.4 3.4
2019-Nov-11 13:00 130 18 5.4 7.0 3.4
2019-Nov-11 12:00 130 17 10.8 7.1 3.0
2019-Nov-11 11:00 130 13 10.8 6.5 2.8
2019-Nov-11 10:00 130 12 10.8 6.4 2.5
2019-Nov-11 09:00 130 13 5.4 5.9 2.1
2019-Nov-11 08:00 130 15 10.8 5.4 2.0
2019-Nov-11 07:00 130 18 10.8 5.7 1.9
2019-Nov-11 06:00 140 13 27.0 5.5 1.9
2019-Nov-11 05:00 130 20 10.8 4.9 1.6
2019-Nov-11 04:00 130 12 10.8 5.4 1.6
2019-Nov-11 03:00 140 21 27.0 5.8 1.6
2019-Nov-11 02:00 140 20 27.0 5.6 1.7
2019-Nov-11 01:00 140 17 27.0 5.6 1.6
2019-Nov-11 00:00 140 18 27.0 5.1 1.7
2019-Nov-10 23:00 140 14 27.0 5.9 1.7
2019-Nov-10 22:00 150 12 27.0 5.4 1.7
2019-Nov-10 21:00 120 6 27.0 5.4 1.9
2019-Nov-10 20:00 120 6 27.0 5.5 1.9
2019-Nov-10 19:00 090 8 27.0 5.6 2.1
2019-Nov-10 18:00 090 7 27.0 5.8 2.2
2019-Nov-10 17:00 080 9 27.0 5.7 2.2
2019-Nov-10 16:00 070 12 10.8 5.9 2.2
2019-Nov-10 15:00 060 8 10.8 6.6 2.5
2019-Nov-10 14:00 060 13 27.0 9.2 2.6
2019-Nov-10 13:00 060 13 27.0 8.2 2.7
2019-Nov-10 12:00 060 13 27.0 8.2 2.5
2019-Nov-10 11:00 050 17 5.4 8.0 2.6
2019-Nov-10 10:00 050 20 10.8 7.0 2.7
2019-Nov-10 09:00 040 18 27.0 6.3 2.5
2019-Nov-10 08:00 040 19 27.0 6.1 2.4
2019-Nov-10 07:00 050 20 10.8 5.9 2.3
2019-Nov-10 06:00 050 19 10.8 6.0 1.9
2019-Nov-10 05:00 050 20 10.8 6.0 1.6
2019-Nov-10 04:00 040 19 27.0 5.9 1.5
2019-Nov-10 03:00 030 13 27.0 5.6 1.5
2019-Nov-10 02:00 040 13 27.0 5.9 1.4
2019-Nov-10 01:00 050 15 27.0 6.0 1.3
2019-Nov-10 00:00 050 17 27.0 6.1 1.4
2019-Nov-09 23:00 040 14 27.0 5.8 1.3
2019-Nov-09 22:00 040 13 27.0 5.4 1.4